Погода в Куземе

Россия / Республика Карелия     65°21′23″N   34°15′26″E
темп.,
°C
ветер,
м/с
пор.,
м/с
влажн.,
%
обл.,
%
осадки,
мм/ч
давл.,
гПа
погр.,
м
18 мая, ср
ср1800:00+2юз4697100 0.0 1016232
03:00+1зсз4798100 0.2 1015290
06:00+2зсз468665 0.0 1013423
09:00+4зсз567294 0.1 10121062
12:00+4зсз5684100 0.6 1011851
15:00+6с676399 1.4 10111314
18:00+6с795285 0.6 10121796
21:00+3ссв5871100 0.8 1013237
19 мая, чт
чт1900:00+1зсз458291 0.0 101487
03:000ссз478892 0.1 1015264
06:00+1ссз69755 0.1 1016719
09:00+4с7953100 0.1 10171741
12:00+5ссв6752100 0.1 10191611
15:00+6ссв5651100 0.1 10201437
18:00+6в435295 0.0 1021977
21:00+4вюв2258100 0.0 102164
20 мая, пт
пт2000:00+2юв016499 0.0 102210
03:00+1всв227157 0.0 102315
06:00+2св446731 0.0 1023567
09:00+4св445876 0.0 10241086
12:00+4всв445473 0.0 10241114
15:00+5в435084 0.0 1024955
18:00+5в3342100 0.0 1023586
21:00+4юв2250100 0.0 1023105
21 мая, сб
сб2100:00+3ю2253100 0.0 102214
03:00+2ююз2257100 0.0 102212
06:00+3юз11527 0.0 1022137
09:00+6вюв11446 0.0 1022868
12:00+7вюв42478 0.0 10211010
15:00+7вюв54525 0.0 1020635
18:00+5вюв55545 0.0 1020462
21:00+3юв465413 0.0 1019234
22 мая, вс
вс2200:00+2ююв356187 0.0 1019126
03:00+2ю3463100 0.0 1019125
06:00+4ю335299 0.0 1018215
09:00+8ю334258 0.0 1017576
12:00+11ю224495 0.0 1016993
15:00+13вюв234411 0.0 10151213
18:00+13вюв324834 0.0 1013478
21:00+12ююз225995 0.0 101338